User: anonymous   Login
Location: Unspecified
(47.4992°N, 121.7766°W)
Time: 02:28:12
(UTC-08:00)
Language:

Cosmos 2058 - Orbit

View from above orbital plane
View from above orbital plane
View from above satellite
View from above satellite

Ground track
Ground track

The orbit data is extracted from the following two-line orbital elements,

1 20465U 90010A   21055.39725419  .00000522  00000-0  41617-4 0  9992
2 20465  82.4894  30.8865 0016985  73.4714 286.8373 14.98144302666044
Epoch (UTC): 24 February 2021 09:32:02
Eccentricity: 0.0016985
inclination: 82.4894°
perigee height: 561 km
apogee height: 584 km
right ascension of ascending node: 30.8865°
argument of perigee: 73.4714°
revolutions per day: 14.98144302
mean anomaly at epoch: 286.8373°
orbit number at epoch: 66604

The dashed part of the orbit path shows where the satellite is in the earth's shadow,  

DLR